Date String (YYYY-MM-DD hh:mm:ss) UTC,Instrument flags,Ambient pressure (hPa),Sample flow (lpm),Bypass flow (lpm),Sample temperature (°C),Ambient temperature (°C),ASC tube jacket temperature (°C),LED temperature (°C),Box temperature (°C),Sample RH (%),Span deviation,Mass concentration (μg/m³),Mass concentration (μg/m³),Mass concentration (μg/m³)
DateTimeUTC,F1_M11,P_M11,Q1_M11,Q2_M11,T1_M11,T2_M11,T3_M11,T4_M11,T5_M11,U1_M11,ZSPAN_M11,X2_M11,X0_M11,X1_M11
2022-03-07 13:00:00,,0829.6,5.01,0.00,21.9,22.0,00.0,31.0,23.6,06.1,0000.0,0005.16,0007.21,0005.05
2022-03-07 13:01:00,,0829.6,5.00,0.00,22.0,22.7,00.0,31.1,23.9,06.1,0000.3,0005.16,0007.98,0005.05
2022-03-07 13:02:00,,0829.6,5.01,0.00,22.2,23.0,00.0,31.1,24.0,06.0,0000.4,0005.16,0007.99,0005.05
2022-03-07 13:03:00,,0829.6,4.99,0.00,22.2,22.7,00.0,31.1,24.0,06.0,0000.3,0005.19,0008.08,0005.06
2022-03-07 13:04:00,,0829.5,4.99,0.00,22.2,22.3,00.0,31.1,23.9,06.1,0000.4,0005.18,0008.03,0005.05
2022-03-07 13:05:00,,0829.5,5.00,0.00,22.1,22.0,00.0,31.1,23.8,06.1,0000.6,0005.17,0008.03,0005.04
2022-03-07 13:06:00,,0829.5,5.00,0.00,22.1,21.7,00.0,31.1,23.7,06.2,0000.4,0005.18,0008.19,0005.04
2022-03-07 13:07:00,,0829.6,5.01,0.00,22.0,21.4,00.0,31.0,23.5,06.2,0000.4,0005.18,0008.28,0005.03
2022-03-07 13:08:00,,0829.6,5.00,0.00,21.9,21.2,00.0,31.0,23.4,06.2,0000.3,0005.16,0008.24,0005.03
2022-03-07 13:09:00,,0829.5,5.00,0.00,21.9,21.4,00.0,31.0,23.4,06.2,0000.8,0005.17,0008.28,0005.03
2022-03-07 13:10:00,,0829.6,5.01,0.00,22.0,22.0,00.0,31.0,23.7,06.2,0001.4,0005.16,0008.24,0005.02
2022-03-07 13:11:00,,0829.6,5.00,0.00,22.1,22.8,00.0,31.1,24.0,06.2,0001.8,0005.16,0008.24,0005.02
2022-03-07 13:12:00,,0829.6,4.99,0.00,22.3,23.1,00.0,31.1,24.2,06.1,0001.5,0005.17,0007.53,0005.02
2022-03-07 13:13:00,,0829.6,5.01,0.00,22.3,22.8,00.0,31.1,24.1,06.1,0000.4,0005.17,0007.52,0005.01
2022-03-07 13:14:00,,0829.6,5.00,0.00,22.2,22.4,00.0,31.1,24.0,06.1,0000.0,0005.17,0007.51,0005.01
2022-03-07 13:15:00,,0829.6,4.99,0.00,22.2,22.1,00.0,31.1,23.8,06.1,0000.0,0005.17,0007.53,0005.00
2022-03-07 13:16:00,,0829.6,5.00,0.00,22.1,21.7,00.0,31.1,23.7,06.2,0000.0,0005.17,0007.53,0005.00
2022-03-07 13:17:00,,0829.5,5.00,0.00,22.0,21.5,00.0,31.1,23.5,06.3,0000.0,0005.18,0007.46,0005.01
2022-03-07 13:18:00,,0829.5,5.00,0.00,21.9,21.2,00.0,31.1,23.4,06.2,0000.0,0005.18,0007.32,0005.01
2022-03-07 13:19:00,,0829.5,5.00,0.00,21.9,21.3,00.0,31.0,23.4,06.2,0000.0,0005.18,0007.39,0005.02
2022-03-07 13:20:00,,0829.5,5.01,0.00,22.0,21.9,00.0,31.1,23.6,06.2,0000.4,0005.18,0007.37,0005.01
2022-03-07 13:21:00,,0829.5,5.00,0.00,22.1,22.6,00.0,31.1,23.9,06.1,0000.8,0005.17,0007.35,0005.01
2022-03-07 13:22:00,,0829.5,5.00,0.00,22.2,23.0,00.0,31.1,24.1,06.0,0000.2,0005.17,0007.31,0005.01
2022-03-07 13:23:00,,0829.5,5.00,0.00,22.3,22.8,00.0,31.1,24.0,06.0,0000.2,0005.17,0007.26,0005.01
2022-03-07 13:24:00,,0829.5,4.99,0.00,22.2,22.4,00.0,31.1,23.9,06.0,0001.2,0005.17,0007.24,0005.03
2022-03-07 13:25:00,,0829.5,5.01,0.00,22.2,22.1,00.0,31.1,23.8,06.0,0001.2,0005.16,0007.19,0005.03
2022-03-07 13:26:00,,0829.5,4.99,0.00,22.1,21.7,00.0,31.1,23.7,06.0,0000.9,0005.15,0007.08,0005.04
2022-03-07 13:27:00,,0829.5,4.99,0.00,22.0,21.5,00.0,31.1,23.6,06.0,0000.6,0005.16,0007.09,0005.06
2022-03-07 13:28:00,,0829.5,5.00,0.00,21.9,21.3,00.0,31.1,23.4,06.0,0000.5,0005.16,0007.12,0005.04
2022-03-07 13:29:00,,0829.5,5.01,0.00,21.9,21.0,00.0,31.0,23.3,06.0,0000.9,0005.17,0007.13,0005.04
2022-03-07 13:30:00,,0829.5,4.99,0.00,21.9,21.4,00.0,31.0,23.4,06.1,0000.9,0005.15,0007.00,0005.04
2022-03-07 13:31:00,,0829.5,5.01,0.00,22.0,22.1,00.0,31.1,23.7,06.1,0000.6,0005.14,0006.94,0005.03
2022-03-07 13:32:00,,0829.6,5.01,0.00,22.1,22.8,00.0,31.1,23.9,06.0,0000.5,0005.14,0006.95,0005.03
2022-03-07 13:33:00,,0829.6,5.01,0.00,22.2,23.0,00.0,31.1,24.1,06.0,0001.0,0005.15,0006.99,0005.02
2022-03-07 13:34:00,,0829.6,4.98,0.00,22.2,22.7,00.0,31.1,24.0,06.0,0000.4,0005.16,0007.06,0005.03
2022-03-07 13:35:00,,0829.6,4.99,0.00,22.2,22.3,00.0,31.1,23.9,06.0,0000.0,0005.17,0007.14,0005.03
2022-03-07 13:36:00,,0829.6,5.01,0.00,22.1,21.9,00.0,31.1,23.7,06.0,0000.0,0005.18,0007.17,0005.04
2022-03-07 13:37:00,,0829.6,5.00,0.00,22.0,21.6,00.0,31.1,23.6,06.0,0000.0,0005.18,0007.19,0005.03
2022-03-07 13:38:00,,0829.5,5.00,0.00,21.9,21.4,00.0,31.1,23.4,06.0,0000.0,0005.18,0007.18,0005.03
2022-03-07 13:39:00,,0829.5,5.01,0.00,21.9,21.2,00.0,31.0,23.3,06.1,0000.0,0005.17,0007.16,0005.03
2022-03-07 13:40:00,,0829.5,4.99,0.00,21.9,21.4,00.0,31.0,23.4,06.1,0000.0,0005.16,0007.14,0005.03
2022-03-07 13:41:00,,0829.6,5.01,0.00,22.0,22.1,00.0,31.1,23.7,06.1,0000.0,0005.16,0007.10,0005.03
2022-03-07 13:42:00,,0829.6,5.00,0.00,22.1,22.9,00.0,31.1,24.0,06.0,0000.0,0005.19,0007.21,0005.04
2022-03-07 13:43:00,,0829.7,4.98,0.00,22.3,23.2,00.0,31.1,24.2,05.9,0000.0,0005.20,0007.27,0005.04
2022-03-07 13:44:00,,0829.6,5.01,0.00,22.3,22.9,00.0,31.2,24.1,05.8,0000.0,0005.20,0007.24,0005.04
2022-03-07 13:45:00,,0829.6,5.00,0.00,22.2,22.5,00.0,31.2,24.0,05.9,0000.1,0005.19,0007.18,0005.04
2022-03-07 13:46:00,,0829.6,4.99,0.00,22.2,22.1,00.0,31.1,23.8,06.0,0000.1,0005.19,0007.16,0005.05
2022-03-07 13:47:00,,0829.6,5.01,0.00,22.1,21.8,00.0,31.1,23.7,05.9,0000.0,0005.19,0007.12,0005.06
2022-03-07 13:48:00,,0829.7,5.00,0.00,22.0,21.6,00.0,31.1,23.6,06.0,0000.0,0005.20,0007.24,0005.06
2022-03-07 13:49:00,,0829.7,5.01,0.00,22.0,21.3,00.0,31.1,23.5,06.0,0000.0,0005.21,0007.28,0005.06
2022-03-07 13:50:00,,0829.6,5.00,0.00,21.9,21.2,00.0,31.1,23.4,06.0,0000.0,0005.22,0007.31,0005.07
2022-03-07 13:51:00,,0829.7,4.99,0.00,21.9,21.7,00.0,31.1,23.5,06.0,0000.0,0005.22,0007.33,0005.07
2022-03-07 13:52:00,,0829.6,5.01,0.00,22.1,22.5,00.0,31.1,23.8,06.0,0000.0,0005.24,0007.39,0005.07
2022-03-07 13:53:00,,0829.7,5.02,0.00,22.2,23.1,00.0,31.1,24.1,06.0,0000.0,0005.24,0007.41,0005.09
2022-03-07 13:54:00,,0829.6,5.00,0.00,22.3,22.8,00.0,31.2,24.1,06.0,0000.0,0005.25,0007.41,0005.11
2022-03-07 13:55:00,,0829.7,4.99,0.00,22.2,22.4,00.0,31.2,24.0,06.1,0000.0,0005.26,0007.41,0005.13
2022-03-07 13:56:00,,0829.6,5.01,0.00,22.2,22.1,00.0,31.1,23.9,06.1,0000.0,0005.30,0007.48,0005.16
2022-03-07 13:57:00,,0829.6,4.98,0.00,22.1,21.8,00.0,31.1,23.7,06.2,0000.0,0005.32,0007.49,0005.18
2022-03-07 13:58:00,,0829.6,5.01,0.00,22.0,21.6,00.0,31.1,23.6,06.2,0000.0,0005.33,0007.50,0005.19
2022-03-07 13:59:00,,0829.6,5.01,0.00,22.0,21.3,00.0,31.1,23.5,06.2,0000.0,0005.35,0007.48,0005.21
